Location: Writing-on-Stone Provincial Park
(49.0825°N, 111.6163°W)
Time: 03:20:13
(UTC-06:00)

Amateur Radio Satellites - All Passes

Search period start: 26 March 2017 02:50
Search period end: 27 March 2017 02:50
Location: Writing-on-Stone Provincial Park, 49.0825°N, 111.6163°W

Satellite Date Start Highest point End Downlink Frequencies (MHz)
Time Altitude Azimuth
O/OREOS (USA 219) 26 Mar 02:51:07 02:55:34 45° 57° (ENE) 02:59:59 437.305
FO-29 26 Mar 02:52:01 02:53:34 11° 318° (NW) 02:55:04 435.910
DUCHIFAT 1 26 Mar 02:58:48 03:01:28 16° 300° (WNW) 03:04:07 145.980
DX 1 26 Mar 03:00:23 03:01:32 11° 273° (W) 03:02:41 434.975-435.025
BUGSAT 1 26 Mar 03:16:53 03:20:22 26° 296° (WNW) 03:23:49 437.445
BEESAT 26 Mar 03:27:54 03:32:42 79° 257° (WSW) 03:37:30 436.000
KKS-1 26 Mar 03:38:12 03:41:05 17° 58° (ENE) 03:43:57 437.445
ITUPSAT 1 26 Mar 03:43:50 03:48:33 58° 259° (WSW) 03:53:18 437.325
MOZHAYETS 4 26 Mar 03:50:28 03:55:03 74° 74° (ENE) 03:59:39
AO-7 26 Mar 03:54:42 04:01:17 25° 91° (E) 04:07:49 .
Oscar 19 26 Mar 03:59:24 04:04:14 41° 294° (WNW) 04:09:04 437.125/150
ITAMSAT 1 26 Mar 04:05:50 04:10:21 29° 94° (E) 04:14:49 435.822/435.867
ISS 26 Mar 04:07:15 04:10:11 30° 215° (SW) 04:13:07 437.550
Gurwin Techsat 1B 26 Mar 04:08:41 04:13:55 58° 291° (WNW) 04:19:07 435.225
Tancredo 1 26 Mar 04:10:11 04:12:53 25° 216° (SW) 04:15:35 437.200
AO-85 26 Mar 04:11:55 04:14:07 14° 25° (NNE) 04:16:19 145.980
STARS 26 Mar 04:15:52 04:18:54 18° 59° (ENE) 04:21:56 437.465
O/OREOS (USA 219) 26 Mar 04:30:58 04:34:45 25° 256° (WSW) 04:38:30 437.305
CUBESAT XI-V 26 Mar 04:41:18 04:45:38 44° 69° (ENE) 04:50:01 437.345
M-CUBED/EXP-1 PRIME 26 Mar 04:50:36 04:51:40 11° 47° (NE) 04:52:45 437.505
BEESAT 26 Mar 05:10:06 05:11:15 11° 274° (W) 05:12:25 436.000
KKS-1 26 Mar 05:12:40 05:17:08 70° 257° (WSW) 05:21:38 437.445
BEESAT 3 26 Mar 05:16:07 05:17:26 11° 18° (NNE) 05:18:45 437.485
MOZHAYETS 4 26 Mar 05:30:10 05:32:45 15° 272° (W) 05:35:20
ITAMSAT 1 26 Mar 05:45:02 05:49:59 45° 293° (WNW) 05:54:54 435.822/435.867
AO-7 26 Mar 05:46:41 05:55:01 84° 291° (WNW) 06:03:19 .
STARS 26 Mar 05:50:25 05:54:48 63° 258° (WSW) 05:59:14 437.465
Gurwin Techsat 1B 26 Mar 05:51:07 05:52:48 11° 311° (NW) 05:54:29 435.225
AO-85 26 Mar 05:51:27 05:55:20 58° 47° (NE) 05:59:16 145.980
CUBESAT XI-V 26 Mar 06:19:29 06:23:13 24° 267° (W) 06:26:58 437.345
M-CUBED/EXP-1 PRIME 26 Mar 06:21:32 06:25:16 73° 69° (ENE) 06:29:23 437.505
XW-2D 26 Mar 06:42:04 06:44:26 16° 91° (E) 06:46:46 145.860 - 145.880
NUDT-PHONESAT 26 Mar 06:43:52 06:45:35 13° 89° (E) 06:47:17 437.300
XW-2B 26 Mar 06:47:49 06:50:24 17° 91° (E) 06:52:58 145.730 - 145.750
KAITUO 1B 26 Mar 06:50:06 06:52:20 15° 90° (E) 06:54:33 145.475/437.950
BEESAT 3 26 Mar 06:52:31 06:56:13 33° 40° (NE) 06:59:53 437.485
XW-2C 26 Mar 06:57:39 07:00:40 22° 93° (E) 07:03:39 145.795 - 145.815
STRAND 1 26 Mar 06:58:30 07:03:06 34° 64° (ENE) 07:07:44 437.568
DOVE 4 26 Mar 07:03:41 07:08:46 43° 97° (E) 07:13:45 437.250
BEESAT 2 26 Mar 07:07:09 07:10:31 24° 35° (NE) 07:13:53 435.950
YUBILEINY 26 Mar 07:14:11 07:20:50 25° 78° (ENE) 07:27:28 435.215
CUTE-I 26 Mar 07:30:58 07:36:08 46° 99° (E) 07:41:15 437.470
NO-84 26 Mar 07:32:22 07:33:55 14° 133° (SE) 07:35:29 435.350 FM
AO-85 26 Mar 07:32:39 07:35:21 18° 246° (WSW) 07:38:04 145.980
AO-7 26 Mar 07:40:19 07:46:46 26° 314° (NW) 07:53:12 .
XW-2F 26 Mar 07:49:27 07:53:12 83° 100° (E) 07:56:57 145.980 - 146.000
LilacSat-2 26 Mar 07:50:02 07:53:50 90° 262° (W) 07:57:36 437.200
M-CUBED/EXP-1 PRIME 26 Mar 07:58:52 08:00:21 12° 268° (W) 08:01:53 437.505
HO-68 26 Mar 08:15:12 08:21:30 32° 94° (E) 08:27:45 435.675
XW-2D 26 Mar 08:15:16 08:18:54 47° 289° (WNW) 08:22:30 145.860 - 145.880
NUDT-PHONESAT 26 Mar 08:16:15 08:19:54 57° 286° (WNW) 08:23:29 437.300
CUBEBUG 2 26 Mar 08:20:21 08:22:29 13° 86° (E) 08:24:34 437.445
XW-2B 26 Mar 08:21:15 08:24:49 42° 289° (WNW) 08:28:21 145.730 - 145.750
KAITUO 1B 26 Mar 08:23:03 08:26:38 47° 289° (WNW) 08:30:11 145.475/437.950
BEESAT 3 26 Mar 08:30:07 08:33:51 37° 240° (WSW) 08:37:33 437.485
XW-2C 26 Mar 08:31:34 08:34:57 32° 291° (WNW) 08:38:18 145.795 - 145.815
XW-2A 26 Mar 08:34:29 08:37:44 39° 99° (E) 08:40:55 145.665 - 145.685
SEEDS 26 Mar 08:34:50 08:38:17 24° 93° (E) 08:41:43 437.485
STRAND 1 26 Mar 08:37:26 08:42:14 38° 263° (W) 08:47:03 437.568
CUTE 1.7 + AOD 2 26 Mar 08:40:36 08:44:36 40° 98° (E) 08:48:35 437.475
DOVE 4 26 Mar 08:41:36 08:46:17 33° 295° (WNW) 08:50:57 437.250
PRISM 26 Mar 08:43:06 08:45:23 15° 58° (ENE) 08:47:41 437.425
BEESAT 2 26 Mar 08:44:36 08:48:38 61° 235° (SW) 08:52:37 435.950
AO-73 26 Mar 08:59:11 08:59:50 10° 85° (E) 09:00:29 145.935
YUBILEINY 26 Mar 09:07:51 09:16:38 83° 281° (W) 09:25:24 435.215
NO-84 26 Mar 09:08:13 09:11:03 80° 330° (NNW) 09:13:58 435.350 FM
CUTE-I 26 Mar 09:11:21 09:16:01 31° 298° (WNW) 09:20:38 437.470
TIGRISAT 26 Mar 09:14:17 09:17:18 17° 59° (ENE) 09:20:18 435.000
UWE-3 26 Mar 09:22:30 09:26:27 33° 95° (E) 09:30:17 435.000/436.395/437.385
UNISAT 6 26 Mar 09:23:42 09:27:15 22° 62° (ENE) 09:30:46 437.425
XW-2F 26 Mar 09:25:47 09:26:46 11° 302° (WNW) 09:27:46 145.980 - 146.000
LilacSat-2 26 Mar 09:26:58 09:27:29 10° 302° (WNW) 09:28:00 437.200
FO-29 26 Mar 09:34:27 09:40:54 31° 58° (ENE) 09:46:58 435.910
CUBEBUG 2 26 Mar 09:55:14 09:59:43 76° 286° (WNW) 10:04:01 437.445
AAUSAT CUBESAT 2 26 Mar 09:55:19 09:59:29 83° 104° (ESE) 10:03:39 437.432
Oscar 11 26 Mar 09:57:08 10:01:06 35° 97° (E) 10:05:03 .
HO-68 26 Mar 10:02:36 10:09:39 62° 294° (WNW) 10:16:41 435.675
ZACube-1 26 Mar 10:03:55 10:08:06 51° 99° (E) 10:12:10 437.345
XW-2A 26 Mar 10:08:02 10:10:13 16° 296° (WNW) 10:12:22 145.665 - 145.685
SEEDS 26 Mar 10:10:13 10:14:05 37° 291° (WNW) 10:17:57 437.485
PRISM 26 Mar 10:16:06 10:20:10 70° 258° (WSW) 10:24:16 437.425
CUTE 1.7 + AOD 2 26 Mar 10:16:52 10:20:15 24° 296° (WNW) 10:23:37 437.475
PCSat 26 Mar 10:19:26 10:24:20 36° 113° (ESE) 10:29:16 145.827
AO-73 26 Mar 10:32:29 10:36:46 89° 281° (W) 10:40:56 145.935
QB50P2 26 Mar 10:32:48 10:33:57 11° 55° (NE) 10:35:07 145.880/145.840
DUCHIFAT 1 26 Mar 10:45:12 10:46:32 11° 56° (NE) 10:47:53 145.980
NO-84 26 Mar 10:46:23 10:48:55 26° 352° (N) 10:51:32 435.350 FM
TIGRISAT 26 Mar 10:48:46 10:53:27 74° 257° (WSW) 10:58:08 435.000
UNISAT 6 26 Mar 10:59:00 11:03:36 56° 260° (W) 11:08:12 437.425
UWE-3 26 Mar 10:59:05 11:02:51 29° 295° (WNW) 11:06:31 435.000/436.395/437.385
YUBILEINY 26 Mar 11:08:24 11:14:56 23° 305° (NW) 11:21:30 435.215
AIST 2D 26 Mar 11:17:13 11:20:25 32° 69° (ENE) 11:23:37 435.315
DELFI C3 26 Mar 11:17:17 11:21:18 79° 105° (ESE) 11:25:17 145.870
FO-29 26 Mar 11:17:37 11:25:26 74° 257° (WSW) 11:32:42 435.910
LO-87 26 Mar 11:24:02 11:25:32 12° 89° (E) 11:27:00 145.935 - 145.965
NANOSAT C BR1 26 Mar 11:28:18 11:32:00 29° 66° (ENE) 11:35:43 145.865
AAUSAT CUBESAT 2 26 Mar 11:32:27 11:34:22 13° 302° (WNW) 11:36:16 437.432
EO-79 26 Mar 11:32:31 11:36:23 34° 67° (ENE) 11:40:17 145.935-145.965
Oscar 11 26 Mar 11:33:28 11:37:08 28° 295° (WNW) 11:40:47 .
CUBEBUG 2 26 Mar 11:34:07 11:35:30 11° 306° (NW) 11:36:53 437.445
ZACube-1 26 Mar 11:40:58 11:44:02 19° 299° (WNW) 11:47:03 437.345
HO-68 26 Mar 11:51:49 11:56:04 17° 316° (NW) 12:00:18 435.675
POLYITAN 1 26 Mar 12:00:08 12:04:23 64° 73° (ENE) 12:08:39 437.675
PCSat 26 Mar 12:02:25 12:07:38 47° 314° (NW) 12:12:54 145.827
QB50P2 26 Mar 12:04:44 12:09:00 76° 74° (ENE) 12:13:18 145.880/145.840
Oscar 19 26 Mar 12:05:24 12:07:35 13° 52° (NE) 12:09:46 437.125/150
AO-73 26 Mar 12:10:39 12:12:19 12° 304° (WNW) 12:13:57 145.935
ESTCUBE 1 26 Mar 12:13:48 12:17:32 25° 93° (E) 12:21:16 437.505/2401.250
DUCHIFAT 1 26 Mar 12:17:14 12:21:29 79° 74° (ENE) 12:25:46 145.980
Gurwin Techsat 1B 26 Mar 12:19:14 12:20:29 11° 49° (NE) 12:21:45 435.225
NO-84 26 Mar 12:24:19 12:27:01 31° 14° (NNE) 12:29:53 435.350 FM
BUGSAT 1 26 Mar 12:34:19 12:38:21 44° 69° (ENE) 12:42:24 437.445
SPROUT 26 Mar 12:38:03 12:39:57 13° 88° (E) 12:41:49 437.525
RS-15 26 Mar 12:50:03 13:00:42 39° 107° (ESE) 13:11:36 29.354- 29.394
AIST 2D 26 Mar 12:51:03 12:53:44 20° 267° (W) 12:56:25 435.315
DELFI C3 26 Mar 12:53:45 12:55:31 13° 301° (WNW) 12:57:18 145.870
LO-87 26 Mar 12:55:45 12:59:22 60° 287° (WNW) 13:02:58 145.935 - 145.965
NANOSAT C BR1 26 Mar 13:03:48 13:07:39 33° 264° (W) 13:11:33 145.865
DX 1 26 Mar 13:06:20 13:07:59 12° 87° (E) 13:09:38 434.975-435.025
FO-29 26 Mar 13:06:43 13:11:27 17° 275° (W) 13:16:04 435.910
EO-79 26 Mar 13:08:30 13:12:11 28° 265° (W) 13:15:54 145.935-145.965
AO-7 26 Mar 13:09:56 13:14:44 17° 36° (NE) 13:19:31 .
VELOX 1 26 Mar 13:26:47 13:31:03 42° 98° (E) 13:35:17 145.980
POLYITAN 1 26 Mar 13:38:03 13:40:36 15° 271° (W) 13:43:09 437.675
Oscar 19 26 Mar 13:40:55 13:45:59 68° 71° (ENE) 13:51:06 437.125/150
QB50P2 26 Mar 13:43:21 13:45:20 13° 272° (W) 13:47:18 145.880/145.840
UKube-1 26 Mar 13:45:25 13:48:43 21° 93° (E) 13:52:00 .
PCSat 26 Mar 13:49:03 13:52:25 16° 337° (NNW) 13:55:47 145.827
ESTCUBE 1 26 Mar 13:50:16 13:54:30 41° 292° (WNW) 13:58:43 437.505/2401.250
ITAMSAT 1 26 Mar 13:51:53 13:54:10 13° 51° (NE) 13:56:28 435.822/435.867
50 SAT 26 Mar 13:52:36 13:56:02 50° 100° (E) 13:59:27 437.505
Gurwin Techsat 1B 26 Mar 13:54:09 13:59:19 54° 69° (ENE) 14:04:30 435.225
DUCHIFAT 1 26 Mar 13:55:59 13:57:43 12° 273° (W) 13:59:28 145.980
NO-84 26 Mar 14:01:41 14:04:45 72° 214° (SW) 14:08:05 435.350 FM
BUGSAT 1 26 Mar 14:10:38 14:13:55 21° 268° (W) 14:17:12 437.445
SPROUT 26 Mar 14:12:06 14:16:24 77° 287° (WNW) 14:20:41 437.525
SO-50 26 Mar 14:31:54 14:32:30 10° 108° (ESE) 14:33:06 436.795
DX 1 26 Mar 14:40:22 14:44:47 85° 283° (WNW) 14:49:11 434.975-435.025
AO-7 26 Mar 14:57:45 15:05:41 52° 59° (ENE) 15:13:38 .
RS-15 26 Mar 15:00:07 15:12:17 79° 312° (NW) 15:24:47 29.354- 29.394
VELOX 1 26 Mar 15:03:38 15:07:19 26° 297° (WNW) 15:10:59 145.980
UKube-1 26 Mar 15:20:49 15:25:00 47° 291° (WNW) 15:29:09 .
Oscar 19 26 Mar 15:22:15 15:25:49 19° 270° (W) 15:29:24 437.125/150
BEESAT 26 Mar 15:24:37 15:28:04 19° 91° (E) 15:31:28 436.000
50 SAT 26 Mar 15:26:43 15:28:44 15° 298° (WNW) 15:30:44 437.505
ITAMSAT 1 26 Mar 15:27:31 15:32:42 67° 71° (ENE) 15:37:55 435.822/435.867
Gurwin Techsat 1B 26 Mar 15:35:15 15:39:35 25° 268° (W) 15:43:57 435.225
PCSat 26 Mar 15:36:22 15:38:14 12° 4° (N) 15:40:05 145.827
ITUPSAT 1 26 Mar 15:40:25 15:44:26 26° 94° (E) 15:48:24 437.325
NO-84 26 Mar 15:40:36 15:41:54 12° 229° (SW) 15:43:14 435.350 FM
MOZHAYETS 4 26 Mar 15:43:02 15:45:06 13° 87° (E) 15:47:09
SPROUT 26 Mar 15:50:19 15:51:34 11° 305° (NW) 15:52:49 437.525
SO-50 26 Mar 16:07:31 16:12:08 69° 126° (SE) 16:16:42 436.795
DX 1 26 Mar 16:18:21 16:20:17 13° 304° (NW) 16:22:12 434.975-435.025
DOVE 4 26 Mar 16:39:26 16:40:48 11° 51° (NE) 16:42:10 437.250
AO-7 26 Mar 16:50:41 16:58:35 46° 260° (W) 17:06:31 .
KKS-1 26 Mar 17:00:25 17:03:22 17° 90° (E) 17:06:16 437.445
BEESAT 26 Mar 17:01:32 17:06:13 59° 290° (WNW) 17:10:54 436.000
HO-68 26 Mar 17:07:35 17:08:52 11° 35° (NE) 17:10:09 435.675
O/OREOS (USA 219) 26 Mar 17:08:20 17:11:52 23° 103° (ESE) 17:15:25 437.305
ITAMSAT 1 26 Mar 17:08:53 17:12:39 20° 270° (W) 17:16:27 435.822/435.867
RS-15 26 Mar 17:15:28 17:26:59 42° 343° (NNW) 17:38:33 29.354- 29.394
YUBILEINY 26 Mar 17:17:23 17:22:39 17° 49° (NE) 17:27:54 435.215
ITUPSAT 1 26 Mar 17:17:55 17:22:26 44° 292° (WNW) 17:26:56 437.325
MOZHAYETS 4 26 Mar 17:18:17 17:22:53 83° 286° (WNW) 17:27:26
CUTE-I 26 Mar 17:18:53 17:22:45 20° 57° (ENE) 17:26:36 437.470
PCSat 26 Mar 17:19:45 17:23:50 21° 30° (NNE) 17:27:53 145.827
XW-2D 26 Mar 17:27:37 17:29:54 15° 62° (ENE) 17:32:11 145.860 - 145.880
NUDT-PHONESAT 26 Mar 17:27:47 17:29:22 12° 60° (ENE) 17:30:57 437.300
XW-2B 26 Mar 17:33:18 17:35:48 17° 63° (ENE) 17:38:18 145.730 - 145.750
KAITUO 1B 26 Mar 17:34:33 17:36:39 14° 61° (ENE) 17:38:44 145.475/437.950
STARS 26 Mar 17:36:28 17:39:29 18° 91° (E) 17:42:28 437.465
XW-2C 26 Mar 17:43:00 17:45:54 21° 65° (ENE) 17:48:49 145.795 - 145.815
SO-50 26 Mar 17:49:05 17:53:00 26° 326° (NNW) 17:56:53 436.795
CUBESAT XI-V 26 Mar 18:10:28 18:15:05 62° 101° (E) 18:19:43 437.345
DOVE 4 26 Mar 18:12:43 18:17:23 61° 72° (ENE) 18:22:23 437.250
XW-2F 26 Mar 18:33:52 18:37:38 70° 74° (ENE) 18:41:25 145.980 - 146.000
LilacSat-2 26 Mar 18:35:22 18:39:11 79° 75° (ENE) 18:43:02 437.200
KKS-1 26 Mar 18:35:53 18:40:20 62° 288° (WNW) 18:44:45 437.445
BEESAT 26 Mar 18:42:30 18:43:03 10° 309° (NW) 18:43:35 436.000
O/OREOS (USA 219) 26 Mar 18:46:34 18:50:58 49° 302° (WNW) 18:55:27 437.305
HO-68 26 Mar 18:48:13 18:54:38 38° 58° (ENE) 19:01:04 435.675
CUTE-I 26 Mar 18:56:51 19:02:13 76° 256° (WSW) 19:07:39 437.470
MOZHAYETS 4 26 Mar 18:57:18 18:59:18 13° 305° (NW) 19:01:19
NUDT-PHONESAT 26 Mar 18:59:03 19:02:47 72° 258° (WSW) 19:06:32 437.300
XW-2D 26 Mar 18:59:58 19:03:42 55° 260° (W) 19:07:27 145.860 - 145.880
PCSat 26 Mar 19:02:43 19:08:12 72° 53° (NE) 19:13:36 145.827
XW-2B 26 Mar 19:05:58 19:09:40 49° 261° (W) 19:13:22 145.730 - 145.750
KAITUO 1B 26 Mar 19:06:32 19:10:15 58° 259° (W) 19:13:57 145.475/437.950
XW-2A 26 Mar 19:09:45 19:12:43 27° 68° (ENE) 19:15:41 145.665 - 145.685
STARS 26 Mar 19:11:49 19:16:11 58° 290° (WNW) 19:20:31 437.465
YUBILEINY 26 Mar 19:12:57 19:21:37 63° 75° (ENE) 19:30:14 435.215
XW-2C 26 Mar 19:16:21 19:19:55 37° 263° (W) 19:23:28 145.795 - 145.815
AAUSAT CUBESAT 2 26 Mar 19:16:43 19:18:14 12° 57° (ENE) 19:19:46 437.432
CUBEBUG 2 26 Mar 19:21:25 19:24:57 21° 61° (ENE) 19:28:26 437.445
M-CUBED/EXP-1 PRIME 26 Mar 19:30:10 19:34:18 31° 101° (E) 19:38:28 437.505
SEEDS 26 Mar 19:30:16 19:33:50 28° 66° (ENE) 19:37:25 437.485
ZACube-1 26 Mar 19:31:07 19:31:56 10° 55° (NE) 19:32:46 437.345
RS-15 26 Mar 19:31:43 19:43:19 42° 17° (NNE) 19:54:39 29.354- 29.394
SO-50 26 Mar 19:33:05 19:34:59 12° 350° (N) 19:36:53 436.795
CUTE 1.7 + AOD 2 26 Mar 19:36:51 19:40:53 47° 71° (ENE) 19:44:57 437.475
CUBESAT XI-V 26 Mar 19:48:45 19:52:02 20° 300° (WNW) 19:55:21 437.345
DOVE 4 26 Mar 19:52:07 19:55:33 20° 272° (W) 19:59:10 437.250
AO-73 26 Mar 19:57:10 19:59:59 16° 60° (ENE) 20:02:45 145.935
XW-2F 26 Mar 20:11:05 20:12:15 11° 272° (W) 20:13:24 145.980 - 146.000
LilacSat-2 26 Mar 20:13:44 20:14:00 10° 273° (W) 20:14:16 437.200
UWE-3 26 Mar 20:22:38 20:27:04 46° 70° (ENE) 20:31:27 435.000/436.395/437.385
O/OREOS (USA 219) 26 Mar 20:30:28 20:31:33 11° 324° (NW) 20:32:38 437.305
HO-68 26 Mar 20:35:10 20:42:09 55° 259° (W) 20:49:11 435.675
CUTE-I 26 Mar 20:41:08 20:43:11 12° 275° (W) 20:45:14 437.470
XW-2A 26 Mar 20:42:41 20:45:29 23° 265° (W) 20:48:18 145.665 - 145.685
STRAND 1 26 Mar 20:43:13 20:48:15 53° 100° (E) 20:53:13 437.568
PCSat 26 Mar 20:47:00 20:51:03 22° 252° (WSW) 20:55:05 145.827
AAUSAT CUBESAT 2 26 Mar 20:48:57 20:53:03 90° 68° (ENE) 20:57:12 437.432
Oscar 11 26 Mar 20:55:29 20:59:35 44° 70° (ENE) 21:03:42 .
CUBEBUG 2 26 Mar 20:56:28 21:01:10 59° 260° (W) 21:05:51 437.445
ZACube-1 26 Mar 21:02:53 21:07:24 67° 73° (ENE) 21:11:51 437.345
M-CUBED/EXP-1 PRIME 26 Mar 21:04:30 21:08:45 39° 298° (WNW) 21:13:05 437.505
SEEDS 26 Mar 21:05:44 21:09:28 32° 264° (W) 21:13:14 437.485
YUBILEINY 26 Mar 21:10:23 21:17:56 35° 277° (W) 21:25:28 435.215
CUTE 1.7 + AOD 2 26 Mar 21:13:56 21:16:59 19° 269° (W) 21:20:03 437.475
SO-50 26 Mar 21:15:03 21:17:23 14° 15° (NNE) 21:19:43 436.795
AO-73 26 Mar 21:31:11 21:35:43 72° 258° (WSW) 21:40:11 145.935
RS-15 26 Mar 21:45:34 21:58:02 78° 47° (NE) 22:09:58 29.354- 29.394
AO-85 26 Mar 21:49:24 21:53:33 45° 123° (ESE) 21:57:29 145.980
PRISM 26 Mar 21:55:04 21:56:44 12° 88° (E) 21:58:25 437.425
UWE-3 26 Mar 21:59:56 22:03:42 24° 268° (W) 22:07:27 435.000/436.395/437.385
LO-87 26 Mar 22:05:20 22:06:04 10° 58° (ENE) 22:06:48 145.935 - 145.965
DELFI C3 26 Mar 22:06:18 22:10:12 77° 75° (ENE) 22:14:09 145.870
STRAND 1 26 Mar 22:22:58 22:27:08 26° 299° (WNW) 22:31:17 437.568
Tancredo 1 26 Mar 22:24:02 22:27:07 49° 151° (SSE) 22:30:12 437.200
ISS 26 Mar 22:25:08 22:28:17 47° 151° (SSE) 22:31:28 437.550
BEESAT 3 26 Mar 22:25:28 22:27:08 12° 110° (ESE) 22:28:51 437.485
FO-29 26 Mar 22:26:38 22:28:44 12° 80° (E) 22:30:46 435.910
HO-68 26 Mar 22:30:41 22:31:31 10° 280° (W) 22:32:21 435.675
Oscar 11 26 Mar 22:32:36 22:35:56 21° 268° (W) 22:39:17 .
TIGRISAT 26 Mar 22:37:18 22:40:16 17° 89° (E) 22:43:10 435.000
ZACube-1 26 Mar 22:41:22 22:44:07 16° 271° (W) 22:46:51 437.345
UNISAT 6 26 Mar 22:47:09 22:50:42 23° 92° (E) 22:54:11 437.425
SO-50 26 Mar 22:54:57 22:59:08 35° 39° (NE) 23:03:17 436.795
ESTCUBE 1 26 Mar 23:16:57 23:21:04 37° 67° (ENE) 23:25:12 437.505/2401.250
PRISM 26 Mar 23:28:23 23:32:33 77° 288° (WNW) 23:36:43 437.425
AO-85 26 Mar 23:30:20 23:34:04 29° 321° (NW) 23:37:40 145.980
SPROUT 26 Mar 23:34:55 23:37:47 18° 60° (ENE) 23:40:40 437.525
LO-87 26 Mar 23:35:19 23:38:56 82° 259° (W) 23:42:35 145.935 - 145.965
DELFI C3 26 Mar 23:44:31 23:45:32 11° 273° (W) 23:46:32 145.870
RS-15 26 Mar 23:58:47 00:09:38 40° 253° (WSW) 00:20:05 29.354- 29.394
Tancredo 1 27 Mar 00:00:06 00:03:15 57° 351° (N) 00:06:24 437.200
BEESAT 3 27 Mar 00:00:11 00:04:07 84° 308° (NW) 00:08:10 437.485
ISS 27 Mar 00:01:30 00:04:45 59° 350° (N) 00:08:01 437.550
DX 1 27 Mar 00:05:03 00:08:05 19° 60° (ENE) 00:11:08 434.975-435.025
FO-29 27 Mar 00:09:00 00:15:13 74° 102° (ESE) 00:20:43 435.910
AIST 2D 27 Mar 00:11:36 00:14:24 22° 94° (E) 00:17:13 435.315
TIGRISAT 27 Mar 00:12:59 00:17:22 57° 289° (WNW) 00:21:37 435.000
BEESAT 2 27 Mar 00:16:36 00:20:31 62° 124° (SE) 00:24:31 435.950
UNISAT 6 27 Mar 00:23:23 00:27:37 43° 291° (WNW) 00:31:44 437.425
VELOX 1 27 Mar 00:27:36 00:31:57 61° 71° (ENE) 00:36:21 145.980
50 SAT 27 Mar 00:29:53 00:33:05 36° 70° (ENE) 00:36:18 437.505
SO-50 27 Mar 00:35:26 00:39:41 42° 239° (WSW) 00:43:54 436.795
UKube-1 27 Mar 00:43:27 00:47:13 30° 65° (ENE) 00:51:00 .
NANOSAT C BR1 27 Mar 00:43:43 00:47:26 29° 95° (E) 00:51:06 145.865
EO-79 27 Mar 00:48:25 00:52:20 35° 97° (E) 00:56:12 145.935-145.965
ESTCUBE 1 27 Mar 00:54:08 00:57:57 28° 266° (W) 01:01:49 437.505/2401.250
PRISM 27 Mar 01:06:06 01:07:07 11° 305° (NW) 01:08:06 437.425
SPROUT 27 Mar 01:09:01 01:13:16 61° 259° (W) 01:17:34 437.525
AO-85 27 Mar 01:14:57 01:15:44 10° 344° (NNW) 01:16:32 145.980
POLYITAN 1 27 Mar 01:16:30 01:20:45 68° 102° (ESE) 01:24:57 437.675
QB50P2 27 Mar 01:21:09 01:25:25 81° 103° (ESE) 01:29:39 145.880/145.840
DUCHIFAT 1 27 Mar 01:32:40 01:36:55 83° 105° (ESE) 01:41:07 145.980
O/OREOS (USA 219) 27 Mar 01:34:39 01:37:36 16° 43° (NE) 01:40:31 437.305
Tancredo 1 27 Mar 01:36:27 01:39:38 60° 11° (N) 01:42:48 437.200
ISS 27 Mar 01:38:13 01:41:28 59° 10° (N) 01:44:44 437.550
BEESAT 3 27 Mar 01:39:32 01:42:20 18° 330° (NNW) 01:45:10 437.485
DX 1 27 Mar 01:39:34 01:43:51 59° 258° (WSW) 01:48:12 434.975-435.025
AIST 2D 27 Mar 01:44:38 01:47:40 28° 292° (WNW) 01:50:40 435.315
BUGSAT 1 27 Mar 01:47:08 01:51:09 42° 99° (E) 01:55:04 437.445
Oscar 19 27 Mar 01:49:14 01:52:40 17° 89° (E) 01:56:04 437.125/150
FO-29 27 Mar 01:54:54 01:59:36 23° 306° (NW) 02:03:56 435.910
BEESAT 2 27 Mar 01:55:22 01:58:38 23° 325° (NW) 02:01:57 435.950
50 SAT 27 Mar 02:03:56 02:06:17 17° 267° (W) 02:08:39 437.505
VELOX 1 27 Mar 02:05:58 02:08:49 17° 270° (W) 02:11:41 145.980
Gurwin Techsat 1B 27 Mar 02:07:25 02:10:30 15° 87° (E) 02:13:33 435.225
UKube-1 27 Mar 02:19:17 02:23:11 33° 263° (W) 02:27:07 .
NANOSAT C BR1 27 Mar 02:19:22 02:23:10 32° 293° (WNW) 02:26:53 145.865
EO-79 27 Mar 02:24:24 02:28:00 27° 295° (WNW) 02:31:34 145.935-145.965
BEESAT 27 Mar 02:34:29 02:38:50 36° 65° (ENE) 02:43:11 436.000
